Location: Warszawa
(52.2500°N, 21.0000°E)
Time: 21:44:39
(UTC+02:00)

AO-91 - Pass Details

Date: 30 April 2024
Orbit: 441 x 737 km, 97.6° (Epoch: 20 May)

Event Time Altitude Azimuth Distance (km) Brightness Sun altitude
Rises 21:44:16 0° 23° (NNE) 2,463 ? -13.4°
Reaches altitude 10° 21:46:28 10° 36° (NE) 1,604 ? -13.6°
Maximum altitude 21:49:27 28° 97° (E) 921 ? -13.9°
Enters shadow 21:50:17 25° 122° (ESE) 998 ? -14.0°
